This is the latest recevied weather packets stored in our database for station/object WK1F-2. If no packets are shown the sender has not sent any weather packets the latest 10 day(s).
| Time | Temp. | Humidity | Pressure | Rain* | Wind** | Luminosity | Snow |
|---|---|---|---|---|---|---|---|
| 1778018546 | 23.89° C | 57% | 1015.2 hPa | 0 mm | - | - | - |
| 1778018246 | 23.89° C | 56% | 1015.1 hPa | 0 mm | - | - | - |
| 1778017946 | 23.89° C | 54% | 1015.2 hPa | 0 mm | - | - | - |
| 1778017646 | 23.89° C | 54% | 1015.2 hPa | 0 mm | - | - | - |
| 1778017346 | 23.89° C | 54% | 1015.3 hPa | 0 mm | - | - | - |
| 1778017045 | 23.89° C | 54% | 1015.2 hPa | 0 mm | - | - | - |
| 1778016746 | 23.89° C | 53% | 1015.3 hPa | 0 mm | - | - | - |
| 1778016446 | 24.44° C | 53% | 1015.3 hPa | 0 mm | - | - | - |
| 1778016145 | 24.44° C | 53% | 1015.3 hPa | 0 mm | - | - | - |
| 1778015845 | 24.44° C | 53% | 1015.4 hPa | 0 mm | - | - | - |
| 1778015545 | 24.44° C | 54% | 1015.3 hPa | 0 mm | - | - | - |
| 1778015245 | 24.44° C | 53% | 1015.4 hPa | 0 mm | - | - | - |
| 1778014945 | 24.44° C | 52% | 1015.4 hPa | 0 mm | - | - | - |
| 1778014645 | 24.44° C | 53% | 1015.3 hPa | 0 mm | - | - | - |
| 1778014346 | 24.44° C | 52% | 1015.3 hPa | 0 mm | - | - | - |
| 1778014045 | 24.44° C | 52% | 1015.4 hPa | 0 mm | - | - | - |
| 1778013745 | 24.44° C | 52% | 1015.5 hPa | 0 mm | - | - | - |
| 1778013445 | 24.44° C | 52% | 1015.5 hPa | 0 mm | - | - | - |
| 1778013145 | 24.44° C | 52% | 1015.6 hPa | 0 mm | - | - | - |
| 1778012845 | 24.44° C | 50% | 1015.7 hPa | 0 mm | - | - | - |
| 1778012545 | 24.44° C | 52% | 1015.7 hPa | 0 mm | - | - | - |
| 1778012245 | 25° C | 49% | 1015.7 hPa | 0 mm | - | - | - |
| 1778011945 | 25° C | 48% | 1015.9 hPa | 0 mm | - | - | - |
| 1778011645 | 25° C | 47% | 1015.9 hPa | 0 mm | - | - | - |
| 1778011345 | 25° C | 47% | 1015.9 hPa | 0 mm | - | - | - |
* Rain latest hour (hover to see other rain measurements)
** Current wind speed in m/s (hover to see current wind gust speed)